Time,TemperatureF,DewpointF,PressureIn,WindDirection,WindDirectionDegrees,WindSpeedMPH,WindSpeedGustMPH,Humidity,HourlyPrecipIn,Conditions,Clouds,dailyrainin,SolarRadiationWatts/m^2,SoftwareType,DateUTC
2013-02-18 00:01:00,47.3,46.7,29.87,South,185,3.7,-999.0,98,0.00,,,0.00,0.00,,2013-02-18 08:01:00,
2013-02-18 00:06:00,47.1,46.5,29.87,SSE,159,5.6,-999.0,98,0.00,,,0.00,0.73,,2013-02-18 08:06:00,
2013-02-18 00:16:00,47.0,46.5,29.87,SW,225,3.5,-999.0,98,0.00,,,0.00,0.18,,2013-02-18 08:16:00,
2013-02-18 00:21:00,46.9,46.5,29.87,SE,132,1.3,-999.0,98,0.00,,,0.00,0.00,,2013-02-18 08:21:00,
2013-02-18 00:26:00,47.2,46.8,29.86,SSW,202,4.0,-999.0,98,0.00,,,0.00,0.98,,2013-02-18 08:26:00,
2013-02-18 00:31:00,47.2,46.8,29.87,SW,214,2.8,-999.0,98,0.00,,,0.00,0.00,,2013-02-18 08:31:00,
2013-02-18 00:36:00,47.3,46.9,29.88,South,173,7.3,-999.0,98,0.00,,,0.00,0.00,,2013-02-18 08:36:00,
2013-02-18 00:41:00,47.3,46.7,29.87,WNW,298,0.0,-999.0,98,0.00,,,0.00,0.00,,2013-02-18 08:41:00,
2013-02-18 00:46:00,47.4,46.6,29.87,SSE,157,5.6,-999.0,97,0.00,,,0.00,0.61,,2013-02-18 08:46:00,
2013-02-18 00:51:00,47.4,46.6,29.88,SW,218,5.6,-999.0,97,0.00,,,0.00,0.00,,2013-02-18 08:51:00,
2013-02-18 00:56:00,47.3,46.4,29.88,SW,235,3.0,-999.0,97,0.00,,,0.00,0.73,,2013-02-18 08:56:00,
2013-02-18 01:01:00,47.4,46.5,29.87,WSW,248,5.6,-999.0,97,0.00,,,0.00,0.00,,2013-02-18 09:01:00,
2013-02-18 01:06:00,47.4,46.4,29.87,SW,217,5.9,-999.0,96,0.00,,,0.00,0.00,,2013-02-18 09:06:00,
2013-02-18 01:11:00,47.3,46.2,29.88,SSW,212,4.4,-999.0,96,0.00,,,0.00,0.67,,2013-02-18 09:11:00,
2013-02-18 01:16:00,47.3,46.1,29.87,SSW,208,4.7,-999.0,96,0.00,,,0.00,0.43,,2013-02-18 09:16:00,
2013-02-18 01:21:00,47.7,46.5,29.86,SSE,153,10.0,-999.0,96,0.00,,,0.00,0.73,,2013-02-18 09:21:00,
2013-02-18 01:26:00,47.3,46.0,29.87,SSW,211,3.9,-999.0,95,0.00,,,0.00,0.06,,2013-02-18 09:26:00,
2013-02-18 01:31:00,47.3,46.0,29.87,SSW,204,5.9,-999.0,95,0.00,,,0.00,0.00,,2013-02-18 09:31:00,
2013-02-18 01:36:00,47.2,45.8,29.86,WSW,255,5.1,-999.0,95,0.00,,,0.00,0.00,,2013-02-18 09:36:00,
2013-02-18 01:41:00,47.2,45.7,29.86,South,175,5.1,-999.0,94,0.00,,,0.00,0.00,,2013-02-18 09:41:00,
2013-02-18 01:46:00,47.3,46.0,29.88,WSW,237,7.8,-999.0,95,0.00,,,0.00,0.06,,2013-02-18 09:46:00,
2013-02-18 01:51:00,47.3,45.9,29.87,SSW,210,8.0,-999.0,95,0.00,,,0.00,0.00,,2013-02-18 09:51:00,
2013-02-18 01:56:00,47.3,45.9,29.86,SSW,206,5.2,-999.0,95,0.00,,,0.00,0.00,,2013-02-18 09:56:00,
2013-02-18 02:01:00,47.3,45.8,29.87,SSW,196,4.5,-999.0,95,0.00,,,0.00,1.04,,2013-02-18 10:01:00,
2013-02-18 02:06:00,47.3,45.8,29.88,SSW,196,3.0,-999.0,95,0.00,,,0.00,0.06,,2013-02-18 10:06:00,
2013-02-18 02:11:00,47.4,46.0,29.86,SW,219,7.6,-999.0,95,0.00,,,0.00,0.00,,2013-02-18 10:11:00,
2013-02-18 02:16:00,47.3,45.8,29.86,WSW,247,1.1,-999.0,94,0.00,,,0.00,0.73,,2013-02-18 10:16:00,
2013-02-18 02:21:00,47.4,45.7,29.87,SSE,153,2.7,-999.0,94,0.00,,,0.00,0.00,,2013-02-18 10:21:00,
2013-02-18 02:26:00,47.3,45.6,29.87,SW,226,7.8,-999.0,94,0.00,,,0.00,0.00,,2013-02-18 10:26:00,
2013-02-18 02:31:00,47.3,45.5,29.86,SW,217,6.3,-999.0,93,0.00,,,0.00,0.00,,2013-02-18 10:31:00,
2013-02-18 02:36:00,47.2,45.0,29.86,SSW,212,2.5,-999.0,92,0.00,,,0.00,0.00,,2013-02-18 10:36:00,
2013-02-18 02:41:00,47.2,45.1,29.88,NE,56,4.5,-999.0,92,0.00,,,0.00,0.00,,2013-02-18 10:41:00,
2013-02-18 02:46:00,47.2,45.0,29.86,South,190,6.1,-999.0,92,0.00,,,0.00,0.00,,2013-02-18 10:46:00,
2013-02-18 02:51:00,47.0,44.8,29.85,SSW,211,6.3,-999.0,92,0.00,,,0.00,0.00,,2013-02-18 10:51:00,
2013-02-18 02:56:00,47.0,44.8,29.86,SW,214,3.9,-999.0,92,0.00,,,0.00,0.73,,2013-02-18 10:56:00,
2013-02-18 03:01:00,47.4,45.2,29.86,SSW,195,4.7,-999.0,92,0.00,,,0.00,0.00,,2013-02-18 11:01:00,
2013-02-18 03:06:00,47.1,44.8,29.85,SSW,201,8.5,-999.0,92,0.00,,,0.00,0.00,,2013-02-18 11:06:00,
2013-02-18 03:11:00,47.0,44.6,29.84,SSE,168,4.0,-999.0,91,0.00,,,0.00,0.00,,2013-02-18 11:11:00,
2013-02-18 03:16:00,47.2,44.9,29.85,SW,230,2.2,-999.0,92,0.00,,,0.00,0.31,,2013-02-18 11:16:00,
2013-02-18 03:21:00,47.3,45.0,29.86,SSW,211,1.8,-999.0,92,0.00,,,0.00,0.00,,2013-02-18 11:21:00,
2013-02-18 03:26:00,47.2,44.8,29.85,South,189,1.6,-999.0,91,0.00,,,0.00,0.00,,2013-02-18 11:26:00,
2013-02-18 03:31:00,47.3,44.4,29.85,NW,316,5.8,-999.0,90,0.00,,,0.00,0.24,,2013-02-18 11:31:00,
2013-02-18 03:36:00,47.1,44.3,29.85,SSW,192,7.6,-999.0,90,0.00,,,0.00,0.00,,2013-02-18 11:36:00,
2013-02-18 03:41:00,47.2,44.3,29.86,WNW,286,2.8,-999.0,90,0.00,,,0.00,1.16,,2013-02-18 11:41:00,
2013-02-18 03:46:00,47.2,44.3,29.84,West,268,2.8,-999.0,90,0.00,,,0.00,0.00,,2013-02-18 11:46:00,
2013-02-18 03:51:00,46.8,43.7,29.85,South,190,7.6,-999.0,89,0.00,,,0.00,0.18,,2013-02-18 11:51:00,
2013-02-18 03:56:00,47.2,44.0,29.86,West,270,1.8,-999.0,89,0.00,,,0.00,0.00,,2013-02-18 11:56:00,
2013-02-18 04:01:00,47.1,43.9,29.85,WSW,237,3.5,-999.0,88,0.00,,,0.00,0.00,,2013-02-18 12:01:00,
2013-02-18 04:06:00,47.1,43.8,29.85,SW,214,11.2,-999.0,88,0.00,,,0.00,0.00,,2013-02-18 12:06:00,
2013-02-18 04:11:00,47.2,43.7,29.87,SSE,163,7.1,-999.0,88,0.00,,,0.00,0.43,,2013-02-18 12:11:00,
2013-02-18 04:16:00,47.2,43.7,29.88,SW,216,6.4,-999.0,88,0.00,,,0.00,0.00,,2013-02-18 12:16:00,
2013-02-18 04:21:00,47.2,43.5,29.85,South,177,3.2,-999.0,87,0.00,,,0.00,0.00,,2013-02-18 12:21:00,
2013-02-18 04:26:00,47.2,43.3,29.86,South,185,4.5,-999.0,86,0.00,,,0.00,0.00,,2013-02-18 12:26:00,
2013-02-18 04:31:00,47.3,43.5,29.86,South,180,2.7,-999.0,86,0.00,,,0.00,0.00,,2013-02-18 12:31:00,
2013-02-18 04:36:00,47.4,43.6,29.85,West,273,2.0,-999.0,87,0.00,,,0.00,1.22,,2013-02-18 12:36:00,
2013-02-18 04:41:00,47.4,43.4,29.85,WSW,248,3.2,-999.0,86,0.00,,,0.00,0.00,,2013-02-18 12:41:00,
2013-02-18 04:46:00,47.4,43.1,29.85,WSW,244,6.1,-999.0,85,0.00,,,0.00,1.22,,2013-02-18 12:46:00,
2013-02-18 04:51:00,47.3,42.9,29.86,WSW,250,6.8,-999.0,85,0.00,,,0.00,1.47,,2013-02-18 12:51:00,
2013-02-18 04:56:00,47.3,43.0,29.85,SW,215,2.3,-999.0,85,0.00,,,0.00,0.98,,2013-02-18 12:56:00,
2013-02-18 05:01:00,47.7,43.4,29.85,South,185,5.1,-999.0,85,0.00,,,0.00,0.92,,2013-02-18 13:01:00,
2013-02-18 05:06:00,47.5,42.9,29.85,SSE,167,4.2,-999.0,84,0.00,,,0.00,0.00,,2013-02-18 13:06:00,
2013-02-18 05:11:00,47.4,42.7,29.87,West,273,4.7,-999.0,84,0.00,,,0.00,0.00,,2013-02-18 13:11:00,
2013-02-18 05:16:00,47.3,42.7,29.85,WSW,254,11.2,-999.0,84,0.00,,,0.00,0.24,,2013-02-18 13:16:00,
2013-02-18 05:21:00,47.3,42.7,29.86,SW,222,2.2,-999.0,84,0.00,,,0.00,0.37,,2013-02-18 13:21:00,
2013-02-18 05:26:00,47.2,42.3,29.87,SSW,200,7.8,-999.0,83,0.00,,,0.00,0.24,,2013-02-18 13:26:00,
2013-02-18 05:31:00,47.2,41.9,29.86,SSW,203,0.0,-999.0,82,0.00,,,0.00,0.00,,2013-02-18 13:31:00,
2013-02-18 05:36:00,47.3,41.8,29.85,South,185,3.4,-999.0,81,0.00,,,0.00,0.00,,2013-02-18 13:36:00,
2013-02-18 05:41:00,47.4,42.1,29.86,South,184,1.5,-999.0,82,0.00,,,0.00,0.00,,2013-02-18 13:41:00,
2013-02-18 05:46:00,47.3,41.9,29.86,SSW,202,1.1,-999.0,81,0.00,,,0.00,0.49,,2013-02-18 13:46:00,
2013-02-18 05:51:00,47.2,41.8,29.85,WSW,246,6.8,-999.0,81,0.00,,,0.00,0.61,,2013-02-18 13:51:00,
2013-02-18 05:56:00,47.2,41.5,29.85,SSW,212,5.6,-999.0,80,0.00,,,0.00,0.98,,2013-02-18 13:56:00,
2013-02-18 06:01:00,47.1,41.7,29.86,SSW,211,6.1,-999.0,81,0.00,,,0.00,0.00,,2013-02-18 14:01:00,
2013-02-18 06:11:00,47.2,41.7,29.87,WSW,240,4.7,-999.0,81,0.00,,,0.00,0.00,,2013-02-18 14:11:00,
2013-02-18 06:16:00,47.2,41.6,29.86,South,182,0.0,-999.0,81,0.00,,,0.00,0.00,,2013-02-18 14:16:00,
2013-02-18 06:21:00,47.0,41.4,29.86,SW,218,7.6,-999.0,81,0.00,,,0.00,0.00,,2013-02-18 14:21:00,
2013-02-18 06:26:00,47.1,41.5,29.86,SSW,204,2.7,-999.0,81,0.00,,,0.00,0.00,,2013-02-18 14:26:00,
2013-02-18 06:31:00,47.2,41.4,29.85,NNW,344,4.0,-999.0,80,0.00,,,0.00,0.73,,2013-02-18 14:31:00,
2013-02-18 06:36:00,47.3,41.5,29.85,NW,312,4.4,-999.0,80,0.00,,,0.00,0.00,,2013-02-18 14:36:00,
2013-02-18 06:41:00,46.8,40.7,29.86,SW,224,6.1,-999.0,79,0.00,,,0.00,1.16,,2013-02-18 14:41:00,
2013-02-18 06:46:00,47.2,40.9,29.86,SSW,211,3.4,-999.0,78,0.00,,,0.00,0.73,,2013-02-18 14:46:00,
2013-02-18 06:51:00,47.2,40.9,29.86,WNW,303,3.4,-999.0,79,0.00,,,0.00,3.66,,2013-02-18 14:51:00,
2013-02-18 06:56:00,47.0,40.8,29.87,WSW,249,1.3,-999.0,79,0.00,,,0.00,3.91,,2013-02-18 14:56:00,
2013-02-18 07:01:00,46.9,40.4,29.88,SSW,201,4.9,-999.0,78,0.00,,,0.00,6.72,,2013-02-18 15:01:00,
2013-02-18 07:06:00,47.0,40.2,29.85,SSW,208,5.8,-999.0,77,0.00,,,0.00,15.63,,2013-02-18 15:06:00,
2013-02-18 07:11:00,47.1,40.2,29.86,SW,221,8.5,-999.0,77,0.00,,,0.00,19.05,,2013-02-18 15:11:00,
2013-02-18 07:16:00,47.3,40.5,29.88,SW,226,4.5,-999.0,77,0.00,,,0.00,24.48,,2013-02-18 15:16:00,
2013-02-18 07:21:00,47.8,41.0,29.87,SW,226,2.3,-999.0,77,0.00,,,0.00,34.68,,2013-02-18 15:21:00,
2013-02-18 07:26:00,47.8,40.7,29.87,WNW,302,3.7,-999.0,76,0.00,,,0.00,57.08,,2013-02-18 15:26:00,
2013-02-18 07:31:00,48.2,40.3,29.87,NNW,336,4.4,-999.0,74,0.00,,,0.00,95.79,,2013-02-18 15:31:00,
2013-02-18 07:41:00,48.1,40.2,29.87,SW,216,3.9,-999.0,74,0.00,,,0.00,85.71,,2013-02-18 15:41:00,
2013-02-18 07:46:00,48.6,39.3,29.87,South,185,4.4,-999.0,70,0.00,,,0.00,105.01,,2013-02-18 15:46:00,
2013-02-18 07:51:00,48.5,39.6,29.88,SW,228,4.9,-999.0,71,0.00,,,0.00,155.13,,2013-02-18 15:51:00,
2013-02-18 07:56:00,50.1,39.5,29.88,SW,230,3.7,-999.0,67,0.00,,,0.00,192.00,,2013-02-18 15:56:00,
2013-02-18 08:01:00,48.1,38.2,29.88,SW,215,6.1,-999.0,68,0.00,,,0.00,107.69,,2013-02-18 16:01:00,
2013-02-18 08:06:00,47.8,38.2,29.88,SW,234,7.8,-999.0,69,0.00,,,0.00,86.75,,2013-02-18 16:06:00,
2013-02-18 08:11:00,48.0,38.9,29.88,WSW,237,3.5,-999.0,71,0.00,,,0.00,91.88,,2013-02-18 16:11:00,
2013-02-18 08:16:00,48.1,39.4,29.88,SSW,208,1.8,-999.0,72,0.00,,,0.00,85.71,,2013-02-18 16:16:00,
2013-02-18 08:21:00,47.9,39.6,29.88,SW,218,3.4,-999.0,73,0.00,,,0.00,92.25,,2013-02-18 16:21:00,
2013-02-18 08:26:00,47.8,39.2,29.88,SSE,166,5.4,-999.0,72,0.00,,,0.00,94.44,,2013-02-18 16:26:00,
2013-02-18 08:31:00,48.3,39.3,29.88,SW,229,2.8,-999.0,71,0.00,,,0.00,98.41,,2013-02-18 16:31:00,
2013-02-18 08:36:00,47.7,38.5,29.88,SW,234,9.8,-999.0,70,0.00,,,0.00,84.86,,2013-02-18 16:36:00,
2013-02-18 08:41:00,48.1,38.7,29.89,SW,229,4.0,-999.0,70,0.00,,,0.00,100.06,,2013-02-18 16:41:00,
2013-02-18 08:46:00,48.7,39.2,29.90,SW,215,1.6,-999.0,69,0.00,,,0.00,109.46,,2013-02-18 16:46:00,
2013-02-18 08:51:00,47.8,37.7,29.89,SSW,193,5.4,-999.0,68,0.00,,,0.00,108.61,,2013-02-18 16:51:00,
2013-02-18 08:56:00,47.7,37.0,29.89,SW,220,8.1,-999.0,66,0.00,,,0.00,107.08,,2013-02-18 16:56:00,
2013-02-18 09:01:00,47.9,37.8,29.89,SW,219,5.6,-999.0,68,0.00,,,0.00,96.21,,2013-02-18 17:01:00,
2013-02-18 09:06:00,47.8,37.4,29.89,SSW,192,8.7,-999.0,67,0.00,,,0.00,142.92,,2013-02-18 17:06:00,
2013-02-18 09:11:00,48.6,38.0,29.89,West,267,6.3,-999.0,67,0.00,,,0.00,109.04,,2013-02-18 17:11:00,
2013-02-18 09:16:00,48.2,37.8,29.89,SE,129,4.0,-999.0,67,0.00,,,0.00,96.70,,2013-02-18 17:16:00,
2013-02-18 09:21:00,47.8,37.7,29.89,SSW,196,7.4,-999.0,68,0.00,,,0.00,87.91,,2013-02-18 17:21:00,
2013-02-18 09:26:00,48.7,38.2,29.89,SSW,200,2.8,-999.0,67,0.00,,,0.00,93.83,,2013-02-18 17:26:00,
2013-02-18 09:31:00,48.1,37.4,29.89,WSW,238,7.4,-999.0,66,0.00,,,0.00,106.72,,2013-02-18 17:31:00,
2013-02-18 09:36:00,48.3,38.2,29.89,NNW,336,4.9,-999.0,68,0.00,,,0.00,113.80,,2013-02-18 17:36:00,
2013-02-18 09:41:00,48.6,37.9,29.89,SW,234,3.0,-999.0,66,0.00,,,0.00,130.40,,2013-02-18 17:41:00,
2013-02-18 09:46:00,48.1,36.9,29.90,SSW,213,8.7,-999.0,65,0.00,,,0.00,128.63,,2013-02-18 17:46:00,
2013-02-18 09:51:00,48.7,37.7,29.89,South,177,6.8,-999.0,66,0.00,,,0.00,134.92,,2013-02-18 17:51:00,
2013-02-18 09:56:00,48.8,37.9,29.89,West,278,4.0,-999.0,66,0.00,,,0.00,159.77,,2013-02-18 17:56:00,
2013-02-18 10:01:00,48.8,37.3,29.90,South,179,8.7,-999.0,64,0.00,,,0.00,171.73,,2013-02-18 18:01:00,
2013-02-18 10:06:00,49.5,37.3,29.89,SSW,211,5.1,-999.0,63,0.00,,,0.00,149.63,,2013-02-18 18:06:00,
2013-02-18 10:11:00,48.9,36.5,29.89,South,177,9.2,-999.0,62,0.00,,,0.00,135.10,,2013-02-18 18:11:00,
2013-02-18 10:16:00,48.6,37.8,29.88,SSW,193,6.3,-999.0,66,0.00,,,0.00,108.73,,2013-02-18 18:16:00,
2013-02-18 10:21:00,49.0,39.2,29.89,WSW,237,3.7,-999.0,69,0.00,,,0.00,101.22,,2013-02-18 18:21:00,
2013-02-18 10:26:00,48.8,38.9,29.91,SSW,195,5.2,-999.0,69,0.00,,,0.00,135.10,,2013-02-18 18:26:00,
2013-02-18 10:31:00,48.7,39.8,29.89,SW,226,5.9,-999.0,71,0.00,,,0.00,117.16,,2013-02-18 18:31:00,
2013-02-18 10:36:00,48.6,39.3,29.90,SSW,203,4.5,-999.0,70,0.00,,,0.00,129.85,,2013-02-18 18:36:00,
2013-02-18 10:41:00,50.2,40.8,29.90,North,2,0.0,-999.0,70,0.00,,,0.00,214.16,,2013-02-18 18:41:00,
2013-02-18 10:46:00,49.0,39.6,29.90,West,281,3.4,-999.0,70,0.00,,,0.00,164.35,,2013-02-18 18:46:00,
2013-02-18 10:51:00,48.6,39.1,29.89,WSW,253,5.2,-999.0,70,0.00,,,0.00,172.41,,2013-02-18 18:51:00,
2013-02-18 10:56:00,49.6,40.5,29.90,SSW,195,1.3,-999.0,71,0.00,,,0.00,249.76,,2013-02-18 18:56:00,
2013-02-18 11:01:00,49.1,39.9,29.90,West,270,6.1,-999.0,71,0.00,,,0.00,343.10,,2013-02-18 19:01:00,
2013-02-18 11:06:00,49.6,40.4,29.90,SSW,208,5.4,-999.0,70,0.00,,,0.00,241.94,,2013-02-18 19:06:00,
2013-02-18 11:11:00,49.1,39.4,29.89,SW,232,3.9,-999.0,69,0.00,,,0.00,173.87,,2013-02-18 19:11:00,
2013-02-18 11:16:00,49.3,39.6,29.89,WNW,295,5.6,-999.0,69,0.00,,,0.00,197.31,,2013-02-18 19:16:00,
2013-02-18 11:26:00,48.8,37.9,29.89,WSW,252,7.6,-999.0,66,0.00,,,0.00,327.53,,2013-02-18 19:26:00,
2013-02-18 11:31:00,49.6,39.3,29.89,SSE,157,6.3,-999.0,68,0.00,,,0.00,333.76,,2013-02-18 19:31:00,
2013-02-18 11:36:00,49.3,38.6,29.89,WNW,299,4.0,-999.0,66,0.00,,,0.00,277.47,,2013-02-18 19:36:00,
2013-02-18 11:41:00,50.5,39.7,29.90,ENE,68,1.8,-999.0,66,0.00,,,0.00,296.64,,2013-02-18 19:41:00,
2013-02-18 11:46:00,49.6,38.1,29.88,West,264,5.1,-999.0,64,0.00,,,0.00,209.77,,2013-02-18 19:46:00,
2013-02-18 11:51:00,49.7,39.4,29.89,SSW,203,2.7,-999.0,67,0.00,,,0.00,136.51,,2013-02-18 19:51:00,
2013-02-18 11:56:00,48.8,38.2,29.88,SW,231,8.7,-999.0,66,0.00,,,0.00,142.86,,2013-02-18 19:56:00,
2013-02-18 12:01:00,48.8,38.6,29.89,WSW,238,6.9,-999.0,68,0.00,,,0.00,157.81,,2013-02-18 20:01:00,
2013-02-18 12:06:00,50.2,40.6,29.88,West,270,5.1,-999.0,69,0.00,,,0.00,162.33,,2013-02-18 20:06:00,
2013-02-18 12:11:00,49.5,39.5,29.89,South,189,6.8,-999.0,68,0.00,,,0.00,172.47,,2013-02-18 20:11:00,
2013-02-18 12:16:00,48.7,37.7,29.88,West,276,7.8,-999.0,65,0.00,,,0.00,269.17,,2013-02-18 20:16:00,
2013-02-18 12:21:00,50.8,39.8,29.88,WSW,252,4.4,-999.0,66,0.00,,,0.00,297.31,,2013-02-18 20:21:00,
2013-02-18 12:26:00,51.4,39.9,29.87,West,265,2.5,-999.0,65,0.00,,,0.00,228.69,,2013-02-18 20:26:00,
2013-02-18 12:31:00,50.7,38.0,29.88,SW,225,6.6,-999.0,62,0.00,,,0.00,363.19,,2013-02-18 20:31:00,
2013-02-18 12:36:00,49.8,37.5,29.87,SSW,210,6.9,-999.0,62,0.00,,,0.00,247.13,,2013-02-18 20:36:00,
2013-02-18 12:41:00,50.1,38.4,29.87,SSW,196,5.8,-999.0,64,0.00,,,0.00,313.13,,2013-02-18 20:41:00,
2013-02-18 12:51:00,49.7,35.4,29.86,WSW,257,11.2,-999.0,58,0.00,,,0.00,517.46,,2013-02-18 20:51:00,
2013-02-18 12:56:00,50.5,35.7,29.86,South,183,6.8,-999.0,57,0.00,,,0.00,180.46,,2013-02-18 20:56:00,
2013-02-18 13:01:00,50.8,35.5,29.85,SSW,205,8.0,-999.0,56,0.00,,,0.00,486.45,,2013-02-18 21:01:00,
2013-02-18 13:06:00,51.5,37.1,29.85,WSW,242,6.6,-999.0,58,0.00,,,0.00,238.83,,2013-02-18 21:06:00,
2013-02-18 13:11:00,51.5,35.9,29.85,SSW,201,5.6,-999.0,55,0.00,,,0.00,298.17,,2013-02-18 21:11:00,
2013-02-18 13:16:00,50.7,36.7,29.84,SSE,151,4.5,-999.0,58,0.00,,,0.00,644.69,,2013-02-18 21:16:00,
2013-02-18 13:26:00,49.6,34.2,29.83,West,281,7.8,-999.0,55,0.00,,,0.00,314.96,,2013-02-18 21:26:00,
2013-02-18 13:31:00,52.0,37.3,29.84,SSW,203,4.7,-999.0,57,0.00,,,0.00,608.30,,2013-02-18 21:31:00,
2013-02-18 13:36:00,50.8,34.5,29.83,West,271,7.3,-999.0,53,0.00,,,0.00,610.20,,2013-02-18 21:36:00,
2013-02-18 13:41:00,50.2,33.0,29.85,WNW,290,9.3,-999.0,51,0.00,,,0.00,208.55,,2013-02-18 21:41:00,
2013-02-18 13:46:00,50.8,34.1,29.84,NNW,346,5.1,-999.0,53,0.00,,,0.00,145.24,,2013-02-18 21:46:00,
2013-02-18 13:51:00,50.8,35.9,29.84,SW,228,7.6,-999.0,56,0.00,,,0.00,212.21,,2013-02-18 21:51:00,
2013-02-18 13:56:00,49.9,33.8,29.84,SSW,204,8.3,-999.0,54,0.00,,,0.00,212.70,,2013-02-18 21:56:00,
2013-02-18 14:11:00,51.2,36.2,29.84,WNW,284,4.5,-999.0,56,0.00,,,0.00,650.79,,2013-02-18 22:11:00,
2013-02-18 14:16:00,49.3,34.2,29.83,WSW,251,6.4,-999.0,56,0.00,,,0.00,280.34,,2013-02-18 22:16:00,
2013-02-18 14:21:00,50.9,35.4,29.83,SSW,201,8.5,-999.0,55,0.00,,,0.00,361.48,,2013-02-18 22:21:00,
2013-02-18 14:26:00,50.2,35.3,29.84,West,266,6.1,-999.0,56,0.00,,,0.00,553.36,,2013-02-18 22:26:00,
2013-02-18 14:31:00,50.7,34.6,29.84,SSW,201,5.9,-999.0,54,0.00,,,0.00,521.86,,2013-02-18 22:31:00,
2013-02-18 14:36:00,53.5,36.5,29.84,SE,137,3.0,-999.0,52,0.00,,,0.00,547.19,,2013-02-18 22:36:00,
2013-02-18 14:46:00,50.3,33.9,29.84,SSW,207,9.8,-999.0,53,0.00,,,0.00,578.69,,2013-02-18 22:46:00,
2013-02-18 14:51:00,50.5,35.4,29.84,West,263,11.1,-999.0,56,0.00,,,0.00,343.41,,2013-02-18 22:51:00,
2013-02-18 14:56:00,51.7,36.0,29.84,NW,314,3.9,-999.0,55,0.00,,,0.00,592.74,,2013-02-18 22:56:00,
2013-02-18 15:01:00,50.2,34.2,29.84,West,275,8.7,-999.0,54,0.00,,,0.00,264.71,,2013-02-18 23:01:00,
2013-02-18 15:06:00,51.1,36.5,29.84,WSW,243,5.8,-999.0,57,0.00,,,0.00,574.60,,2013-02-18 23:06:00,
2013-02-18 15:11:00,51.3,35.7,29.85,West,276,4.4,-999.0,55,0.00,,,0.00,222.95,,2013-02-18 23:11:00,
2013-02-18 15:16:00,50.3,35.3,29.84,WNW,294,6.3,-999.0,56,0.00,,,0.00,166.18,,2013-02-18 23:16:00,
2013-02-18 15:21:00,49.4,34.8,29.83,WNW,288,8.5,-999.0,57,0.00,,,0.00,264.22,,2013-02-18 23:21:00,
2013-02-18 15:26:00,50.5,35.4,29.83,SW,219,1.8,-999.0,56,0.00,,,0.00,318.01,,2013-02-18 23:26:00,
2013-02-18 15:31:00,50.9,35.5,29.84,West,262,6.3,-999.0,55,0.00,,,0.00,342.31,,2013-02-18 23:31:00,
2013-02-18 15:36:00,51.5,37.6,29.83,North,6,2.8,-999.0,59,0.00,,,0.00,216.42,,2013-02-18 23:36:00,
2013-02-18 15:41:00,50.0,35.9,29.84,SW,223,7.1,-999.0,58,0.00,,,0.00,215.20,,2013-02-18 23:41:00,
2013-02-18 15:46:00,49.7,35.5,29.84,NNW,329,8.1,-999.0,58,0.00,,,0.00,188.71,,2013-02-18 23:46:00,
2013-02-18 15:51:00,50.6,36.4,29.84,NE,39,6.1,-999.0,58,0.00,,,0.00,125.95,,2013-02-18 23:51:00,
2013-02-18 15:56:00,49.6,36.4,29.83,West,260,7.1,-999.0,60,0.00,,,0.00,87.48,,2013-02-18 23:56:00,
2013-02-18 16:01:00,49.0,35.6,29.83,South,172,8.0,-999.0,60,0.00,,,0.00,104.82,,2013-02-19 00:01:00,
2013-02-18 16:06:00,50.4,37.7,29.84,East,79,5.1,-999.0,62,0.00,,,0.00,144.87,,2013-02-19 00:06:00,
2013-02-18 16:16:00,49.2,36.1,29.84,WSW,244,8.1,-999.0,60,0.00,,,0.00,81.38,,2013-02-19 00:16:00,
2013-02-18 16:21:00,49.6,36.9,29.84,West,281,3.2,-999.0,61,0.00,,,0.00,49.15,,2013-02-19 00:21:00,
2013-02-18 16:26:00,49.0,36.6,29.85,WSW,242,5.4,-999.0,62,0.00,,,0.00,47.19,,2013-02-19 00:26:00,
2013-02-18 16:36:00,49.3,37.3,29.83,SSW,203,3.2,-999.0,63,0.00,,,0.00,43.53,,2013-02-19 00:36:00,
2013-02-18 16:46:00,49.4,37.3,29.83,WNW,283,7.4,-999.0,63,0.00,,,0.00,31.75,,2013-02-19 00:46:00,
2013-02-18 16:51:00,49.0,37.5,29.84,NW,321,4.5,-999.0,64,0.00,,,0.00,32.91,,2013-02-19 00:51:00,
2013-02-18 16:56:00,49.4,38.2,29.83,NNW,333,4.9,-999.0,65,0.00,,,0.00,31.26,,2013-02-19 00:56:00,
2013-02-18 17:01:00,48.9,37.9,29.83,WSW,252,6.6,-999.0,66,0.00,,,0.00,20.45,,2013-02-19 01:01:00,
2013-02-18 17:06:00,48.5,37.5,29.85,SW,223,8.3,-999.0,65,0.00,,,0.00,19.05,,2013-02-19 01:06:00,
2013-02-18 17:11:00,48.2,36.3,29.83,WSW,245,5.2,-999.0,63,0.00,,,0.00,19.35,,2013-02-19 01:11:00,
2013-02-18 17:16:00,48.6,36.2,29.83,West,280,5.8,-999.0,62,0.00,,,0.00,33.39,,2013-02-19 01:16:00,
2013-02-18 17:21:00,48.8,36.1,29.83,NW,306,6.6,-999.0,61,0.00,,,0.00,37.67,,2013-02-19 01:21:00,
2013-02-18 17:26:00,48.7,36.2,29.83,WNW,289,8.5,-999.0,62,0.00,,,0.00,26.01,,2013-02-19 01:26:00,
2013-02-18 17:31:00,48.6,36.4,29.83,SW,220,8.0,-999.0,62,0.00,,,0.00,20.15,,2013-02-19 01:31:00,
2013-02-18 17:36:00,48.9,36.6,29.83,SSW,195,9.5,-999.0,62,0.00,,,0.00,13.37,,2013-02-19 01:36:00,
2013-02-18 17:41:00,48.5,36.1,29.83,West,268,6.3,-999.0,62,0.00,,,0.00,11.72,,2013-02-19 01:41:00,
2013-02-18 17:46:00,48.5,36.7,29.83,WNW,295,4.9,-999.0,63,0.00,,,0.00,4.46,,2013-02-19 01:46:00,
2013-02-18 17:51:00,48.5,37.0,29.83,WNW,298,5.4,-999.0,64,0.00,,,0.00,2.26,,2013-02-19 01:51:00,
2013-02-18 17:56:00,48.4,37.2,29.83,West,278,6.6,-999.0,65,0.00,,,0.00,2.32,,2013-02-19 01:56:00,
2013-02-18 18:01:00,48.4,37.6,29.83,NW,323,5.8,-999.0,66,0.00,,,0.00,1.95,,2013-02-19 02:01:00,
2013-02-18 18:06:00,48.2,37.2,29.83,SSW,210,5.1,-999.0,65,0.00,,,0.00,0.55,,2013-02-19 02:06:00,
2013-02-18 18:11:00,48.3,37.9,29.83,WNW,288,4.4,-999.0,67,0.00,,,0.00,0.00,,2013-02-19 02:11:00,
2013-02-18 18:16:00,48.2,37.7,29.83,SSW,212,5.9,-999.0,67,0.00,,,0.00,0.00,,2013-02-19 02:16:00,
2013-02-18 18:21:00,48.4,38.1,29.83,WNW,285,2.0,-999.0,67,0.00,,,0.00,0.00,,2013-02-19 02:21:00,
2013-02-18 18:26:00,48.3,38.6,29.83,West,261,7.6,-999.0,69,0.00,,,0.00,0.67,,2013-02-19 02:26:00,
2013-02-18 18:31:00,48.3,38.7,29.83,West,277,4.9,-999.0,69,0.00,,,0.00,0.37,,2013-02-19 02:31:00,
2013-02-18 18:36:00,48.5,38.8,29.84,NNW,346,5.8,-999.0,69,0.00,,,0.00,0.18,,2013-02-19 02:36:00,
2013-02-18 18:41:00,48.2,38.0,29.83,SW,232,2.3,-999.0,68,0.00,,,0.00,0.00,,2013-02-19 02:41:00,
2013-02-18 18:46:00,47.8,37.0,29.83,WSW,252,11.9,-999.0,66,0.00,,,0.00,0.00,,2013-02-19 02:46:00,
2013-02-18 18:51:00,47.9,37.3,29.83,SSW,192,12.1,-999.0,66,0.00,,,0.00,0.00,,2013-02-19 02:51:00,
2013-02-18 19:01:00,48.2,38.2,29.83,West,273,4.4,-999.0,68,0.00,,,0.00,0.00,,2013-02-19 03:01:00,
2013-02-18 19:06:00,48.2,38.4,29.83,North,11,8.8,-999.0,69,0.00,,,0.00,0.00,,2013-02-19 03:06:00,
2013-02-18 19:11:00,48.4,38.5,29.84,NNW,336,1.8,-999.0,69,0.00,,,0.00,0.00,,2013-02-19 03:11:00,
2013-02-18 19:16:00,48.3,38.5,29.83,SW,226,3.2,-999.0,69,0.00,,,0.00,0.43,,2013-02-19 03:16:00,
2013-02-18 19:21:00,48.1,38.5,29.83,SSW,205,6.3,-999.0,69,0.00,,,0.00,0.43,,2013-02-19 03:21:00,
2013-02-18 19:26:00,48.2,38.5,29.83,West,279,4.9,-999.0,69,0.00,,,0.00,0.00,,2013-02-19 03:26:00,
2013-02-18 19:36:00,48.0,38.0,29.83,WSW,248,8.3,-999.0,68,0.00,,,0.00,0.00,,2013-02-19 03:36:00,
2013-02-18 19:41:00,48.0,37.7,29.83,WSW,247,15.2,-999.0,67,0.00,,,0.00,0.00,,2013-02-19 03:41:00,
2013-02-18 19:46:00,48.4,38.2,29.83,WSW,237,7.3,-999.0,68,0.00,,,0.00,0.67,,2013-02-19 03:46:00,
2013-02-18 19:51:00,47.9,37.5,29.83,WNW,286,5.6,-999.0,67,0.00,,,0.00,0.67,,2013-02-19 03:51:00,
2013-02-18 19:56:00,47.8,37.9,29.83,SW,224,7.1,-999.0,68,0.00,,,0.00,0.00,,2013-02-19 03:56:00,
2013-02-18 20:06:00,48.0,38.2,29.83,West,269,6.1,-999.0,69,0.00,,,0.00,0.24,,2013-02-19 04:06:00,
2013-02-18 20:11:00,47.7,37.6,29.83,SSW,206,5.4,-999.0,68,0.00,,,0.00,0.73,,2013-02-19 04:11:00,
2013-02-18 20:16:00,47.5,36.8,29.83,WNW,283,9.2,-999.0,66,0.00,,,0.00,0.24,,2013-02-19 04:16:00,
2013-02-18 20:21:00,47.7,36.7,29.83,West,267,1.5,-999.0,65,0.00,,,0.00,0.00,,2013-02-19 04:21:00,
2013-02-18 20:26:00,47.6,36.1,29.84,West,264,4.2,-999.0,64,0.00,,,0.00,0.00,,2013-02-19 04:26:00,
2013-02-18 20:31:00,47.6,36.3,29.83,WSW,250,4.9,-999.0,65,0.00,,,0.00,0.00,,2013-02-19 04:31:00,
2013-02-18 20:36:00,47.5,36.5,29.83,West,281,9.5,-999.0,65,0.00,,,0.00,0.06,,2013-02-19 04:36:00,
2013-02-18 20:41:00,47.6,36.7,29.83,West,272,6.8,-999.0,66,0.00,,,0.00,0.00,,2013-02-19 04:41:00,
2013-02-18 20:46:00,47.8,36.9,29.84,NE,40,2.7,-999.0,66,0.00,,,0.00,0.67,,2013-02-19 04:46:00,
2013-02-18 20:51:00,47.7,36.7,29.84,South,170,5.8,-999.0,66,0.00,,,0.00,0.00,,2013-02-19 04:51:00,
2013-02-18 20:56:00,47.8,36.6,29.83,SE,125,2.7,-999.0,65,0.00,,,0.00,0.00,,2013-02-19 04:56:00,
2013-02-18 21:01:00,47.7,36.4,29.85,SSW,211,2.7,-999.0,65,0.00,,,0.00,0.00,,2013-02-19 05:01:00,
2013-02-18 21:06:00,47.9,35.7,29.85,NW,313,3.9,-999.0,63,0.00,,,0.00,0.00,,2013-02-19 05:06:00,
2013-02-18 21:11:00,47.9,35.8,29.84,West,279,4.2,-999.0,63,0.00,,,0.00,0.00,,2013-02-19 05:11:00,
2013-02-18 21:16:00,47.8,35.6,29.84,West,259,10.0,-999.0,62,0.00,,,0.00,0.00,,2013-02-19 05:16:00,
2013-02-18 21:21:00,47.9,35.9,29.84,West,260,4.5,-999.0,63,0.00,,,0.00,1.22,,2013-02-19 05:21:00,
2013-02-18 21:26:00,47.9,35.7,29.84,West,262,3.9,-999.0,63,0.00,,,0.00,0.06,,2013-02-19 05:26:00,
2013-02-18 21:31:00,47.5,35.0,29.84,SW,227,9.0,-999.0,61,0.00,,,0.00,0.00,,2013-02-19 05:31:00,
2013-02-18 21:36:00,47.7,35.1,29.85,WSW,247,5.1,-999.0,62,0.00,,,0.00,0.00,,2013-02-19 05:36:00,
2013-02-18 21:41:00,47.5,35.0,29.85,SW,231,11.6,-999.0,61,0.00,,,0.00,0.73,,2013-02-19 05:41:00,
2013-02-18 21:46:00,47.7,35.4,29.84,West,260,0.0,-999.0,62,0.00,,,0.00,0.00,,2013-02-19 05:46:00,
2013-02-18 21:51:00,47.8,35.4,29.84,West,266,5.1,-999.0,62,0.00,,,0.00,0.73,,2013-02-19 05:51:00,
2013-02-18 21:56:00,47.6,35.0,29.85,WSW,256,5.9,-999.0,61,0.00,,,0.00,0.00,,2013-02-19 05:56:00,
2013-02-18 22:01:00,47.6,34.4,29.85,West,265,6.9,-999.0,60,0.00,,,0.00,0.00,,2013-02-19 06:01:00,
2013-02-18 22:06:00,47.4,33.8,29.84,WSW,250,8.5,-999.0,59,0.00,,,0.00,0.00,,2013-02-19 06:06:00,
2013-02-18 22:11:00,47.6,34.5,29.84,WNW,294,2.2,-999.0,60,0.00,,,0.00,0.98,,2013-02-19 06:11:00,
2013-02-18 22:16:00,47.5,34.4,29.83,WSW,254,7.6,-999.0,60,0.00,,,0.00,0.12,,2013-02-19 06:16:00,
2013-02-18 22:21:00,47.8,34.6,29.85,WNW,283,5.8,-999.0,60,0.00,,,0.00,0.00,,2013-02-19 06:21:00,
2013-02-18 22:26:00,47.7,34.7,29.84,SW,229,4.9,-999.0,61,0.00,,,0.00,1.22,,2013-02-19 06:26:00,
2013-02-18 22:31:00,47.7,35.0,29.84,West,281,5.1,-999.0,61,0.00,,,0.00,0.00,,2013-02-19 06:31:00,
2013-02-18 22:36:00,47.6,34.6,29.84,West,264,4.0,-999.0,60,0.00,,,0.00,0.79,,2013-02-19 06:36:00,
2013-02-18 22:41:00,47.6,34.8,29.83,NW,318,3.9,-999.0,61,0.00,,,0.00,0.00,,2013-02-19 06:41:00,
2013-02-18 22:46:00,47.5,35.1,29.83,West,275,6.4,-999.0,62,0.00,,,0.00,0.00,,2013-02-19 06:46:00,
2013-02-18 22:51:00,47.7,35.8,29.84,WNW,290,2.2,-999.0,63,0.00,,,0.00,0.31,,2013-02-19 06:51:00,
2013-02-18 22:56:00,47.5,35.6,29.84,SW,230,5.6,-999.0,63,0.00,,,0.00,0.31,,2013-02-19 06:56:00,
2013-02-18 23:01:00,47.3,35.2,29.83,WNW,291,3.9,-999.0,62,0.00,,,0.00,0.00,,2013-02-19 07:01:00,
2013-02-18 23:06:00,47.6,33.8,29.83,WSW,257,5.4,-999.0,59,0.00,,,0.00,0.98,,2013-02-19 07:06:00,
2013-02-18 23:11:00,47.5,33.2,29.83,WNW,291,5.2,-999.0,57,0.00,,,0.00,0.00,,2013-02-19 07:11:00,
2013-02-18 23:16:00,47.7,33.9,29.84,WSW,253,6.6,-999.0,59,0.00,,,0.00,0.00,,2013-02-19 07:16:00,
2013-02-18 23:21:00,47.4,33.4,29.83,NE,39,2.8,-999.0,58,0.00,,,0.00,0.00,,2013-02-19 07:21:00,
2013-02-18 23:26:00,47.4,33.8,29.83,NNW,335,3.5,-999.0,59,0.00,,,0.00,0.00,,2013-02-19 07:26:00,
2013-02-18 23:31:00,47.3,34.0,29.83,NW,305,7.8,-999.0,60,0.00,,,0.00,0.00,,2013-02-19 07:31:00,
2013-02-18 23:36:00,47.4,33.9,29.83,SSW,199,1.1,-999.0,59,0.00,,,0.00,0.73,,2013-02-19 07:36:00,
2013-02-18 23:41:00,47.6,34.5,29.82,WNW,284,9.0,-999.0,60,0.00,,,0.00,0.00,,2013-02-19 07:41:00,
2013-02-18 23:46:00,47.5,34.6,29.84,West,269,7.4,-999.0,61,0.00,,,0.00,0.00,,2013-02-19 07:46:00,
2013-02-18 23:51:00,47.6,33.2,29.83,WSW,238,6.1,-999.0,57,0.00,,,0.00,0.00,,2013-02-19 07:51:00,
2013-02-18 23:56:00,47.5,33.4,29.82,WSW,257,3.9,-999.0,58,0.00,,,0.00,0.31,,2013-02-19 07:56:00,